Theta_e
323 325 326 326 326 326 326 327 327 328 328 329 329 329 328 328 328 328 327 327 327 328 328 328 327 326 325 323 321 321 319 317 317 316 313 311 308 308 307 304 299 296 294 293 293 292 291 291 290 290 289 289 289 288 288 287 288 287 287 288 289 288 288 290 292 292 290 290 290 288 288 287 286 286 286 286 286 285 285 285 285 285 285 284 284
322 323 324 324 324 324 324 325 326 327 328 328 329 328 328 328 327 326 326 326 327 328 328 328 326 326 325 323 321 320 319 318 317 316 314 311 308 307 305 299 295 294 293 293 292 291 291 290 290 289 289 288 288 288 288 287 287 287 286 287 288 288 287 287 289 290 290 289 289 288 287 287 286 286 286 286 285 285 284 284 284 284 284 284 283
319 319 320 321 321 322 323 324 325 326 326 327 328 328 327 327 326 326 326 326 327 328 328 327 325 325 324 322 321 319 318 319 318 316 315 311 309 306 301 295 293 294 293 292 291 291 290 289 289 289 288 288 288 287 287 287 287 287 287 286 287 287 287 286 286 288 289 288 288 287 287 286 286 286 286 285 285 284 284 284 284 284 284 284 283
316 316 318 319 320 321 322 324 325 325 326 326 327 327 327 326 326 325 326 326 326 327 326 325 325 324 322 321 319 318 318 318 317 316 314 311 308 303 296 293 293 293 292 291 291 290 290 289 289 288 288 288 287 287 287 287 287 287 287 286 286 286 286 285 286 287 287 287 287 287 286 286 286 286 286 285 284 284 284 284 284 283 283 284 283
314 315 316 318 319 321 322 323 323 324 324 325 325 326 326 326 325 325 325 326 326 325 324 323 323 323 321 320 319 318 318 318 316 316 313 308 304 298 293 292 293 292 292 291 290 290 289 289 288 288 288 288 287 287 287 287 287 287 286 286 286 286 285 285 285 285 286 286 286 286 286 286 286 285 285 284 284 284 284 283 283 283 283 283 283
312 313 314 316 318 319 320 321 322 323 323 323 324 324 324 325 325 324 325 325 324 323 322 321 322 322 321 320 319 319 319 317 316 316 311 304 298 294 292 292 292 291 291 290 290 289 289 288 288 288 288 287 287 287 287 287 286 287 286 286 286 285 285 285 285 285 285 286 286 286 286 286 285 285 285 284 283 283 283 282 283 282 282 282 282
309 310 311 313 316 318 319 320 321 321 322 322 323 323 323 324 324 324 324 323 323 323 321 319 321 322 321 320 319 319 318 317 316 313 306 299 294 292 292 292 291 291 290 289 289 289 288 288 288 287 287 287 287 287 287 287 286 286 286 286 285 284 285 285 285 285 285 285 285 286 286 285 285 285 284 283 283 283 282 282 282 282 282 281 281
307 307 308 310 313 315 317 318 319 320 320 321 321 321 321 322 322 322 322 321 321 322 321 320 319 320 320 318 317 317 317 316 314 308 300 295 292 292 292 291 291 290 289 289 288 288 287 287 287 287 287 287 287 287 287 286 286 286 286 285 284 284 285 285 285 285 285 285 285 285 285 285 285 284 283 283 282 282 281 280 281 281 281 280 281
306 307 308 308 310 312 314 315 317 317 318 318 318 319 319 319 319 319 319 318 318 318 317 317 318 318 317 316 316 315 315 315 312 304 296 292 292 292 291 291 290 289 289 288 288 287 287 287 287 287 287 287 287 287 286 286 286 286 286 285 284 284 284 284 284 285 285 285 285 285 284 284 284 283 283 282 282 281 281 280 280 280 280 280 281
306 307 308 308 309 310 311 313 315 315 315 316 316 316 316 316 316 316 315 314 314 313 312 312 315 317 317 316 316 313 311 311 308 300 294 292 292 291 291 290 289 289 288 288 287 287 287 287 287 287 286 286 286 286 286 286 286 285 286 285 284 284 283 283 283 284 284 284 284 284 283 283 283 283 282 282 281 280 280 279 279 279 279 279 280
307 307 308 309 309 310 311 312 313 313 314 314 314 314 314 314 313 313 312 311 311 311 310 310 313 316 316 316 316 312 309 307 302 296 292 292 292 291 290 289 289 288 288 288 287 287 287 287 287 286 286 286 286 286 286 285 285 285 285 285 284 284 283 282 282 282 282 283 283 283 282 282 282 282 281 281 280 280 279 279 279 278 278 279 279
308 308 308 309 309 310 310 311 311 311 312 313 313 313 312 312 311 310 310 310 310 309 309 309 311 313 315 316 315 311 306 302 297 293 292 291 291 291 290 289 289 288 288 287 287 287 287 286 286 286 286 286 286 286 285 285 285 285 285 284 284 283 283 282 281 281 281 281 281 281 281 282 281 281 281 280 279 279 278 278 278 278 278 278 278
308 308 308 308 308 308 309 309 308 309 310 311 311 310 310 309 309 309 309 309 309 308 308 308 310 312 315 315 312 308 303 297 293 292 291 290 290 290 290 289 288 288 287 287 287 287 287 286 286 286 286 286 285 285 285 285 284 285 285 284 283 283 282 282 281 281 280 280 280 280 281 281 281 280 280 279 278 278 277 277 277 277 277 277 276
308 308 307 307 307 307 307 307 307 307 307 308 308 308 308 308 308 308 308 307 306 307 307 308 309 312 313 311 308 303 299 294 292 291 290 290 289 289 289 288 288 287 287 287 287 287 287 286 286 286 286 285 285 285 285 284 284 285 284 284 283 283 282 281 281 280 280 279 279 280 280 280 279 279 278 277 277 277 277 276 276 276 275 275 275
307 307 307 306 306 306 306 306 306 306 305 305 305 306 306 306 305 305 306 307 306 307 307 307 309 309 308 305 302 298 295 292 291 290 290 289 288 288 288 288 287 287 287 287 286 286 286 286 286 286 286 285 285 284 284 284 285 285 284 283 283 282 282 281 281 280 280 280 279 280 279 279 279 278 277 276 276 276 276 276 275 275 275 275 275
306 306 306 306 305 306 306 306 305 305 304 303 303 304 304 303 303 303 303 304 304 304 304 306 307 306 302 299 298 295 291 290 290 289 289 288 288 288 287 287 287 287 286 286 286 286 286 286 286 285 285 285 285 284 284 284 284 284 283 283 283 282 281 281 281 280 280 280 280 280 279 279 278 278 277 277 276 275 275 275 275 274 274 274 274
305 305 305 305 306 306 306 305 305 304 303 302 302 302 302 302 302 301 302 302 302 302 303 304 303 302 299 296 294 292 290 289 289 289 288 288 287 287 287 287 286 286 286 286 286 286 285 285 285 285 285 285 285 284 284 284 284 283 283 283 282 282 281 281 281 280 280 280 280 279 279 279 278 278 278 278 277 276 275 275 275 274 273 273 274
303 304 304 305 305 305 305 304 304 304 303 303 303 302 301 301 301 301 302 303 303 303 303 302 299 298 297 295 293 291 290 289 288 288 287 287 287 287 286 286 286 286 285 285 285 285 285 285 285 285 285 285 284 284 284 284 284 283 283 283 282 282 281 281 281 280 280 280 279 279 279 279 278 279 279 279 278 277 275 274 274 273 273 273 273
302 303 303 303 303 304 304 304 303 303 303 303 303 302 301 301 301 300 300 302 302 302 301 299 296 294 293 292 290 290 289 288 287 287 287 287 286 286 286 286 285 285 285 285 285 285 285 285 285 284 284 284 284 284 284 284 283 283 282 282 282 281 281 281 280 280 280 279 279 279 279 279 279 279 279 279 279 277 276 274 273 272 272 273 273
302 302 302 302 301 302 303 303 303 303 304 303 302 301 301 300 299 298 298 298 299 298 296 295 293 291 289 289 288 288 289 288 287 286 286 286 286 286 286 286 286 285 285 285 285 284 284 284 284 284 284 284 284 284 283 283 282 282 282 281 281 281 281 281 280 280 279 279 279 279 279 279 279 279 279 279 278 277 275 274 273 272 271 272 272
301 301 301 301 301 300 301 302 302 303 304 304 302 301 300 299 299 298 296 295 294 293 291 291 290 289 288 288 287 287 288 287 287 286 286 286 286 286 286 286 286 286 285 285 285 285 285 285 284 284 283 283 283 283 282 282 281 281 281 280 280 280 280 280 279 279 279 278 278 278 279 279 279 279 279 278 277 275 274 274 273 273 271 271 271
300 300 301 300 299 299 299 300 300 300 301 301 300 298 297 296 296 295 293 292 291 290 289 288 288 288 287 287 287 287 287 287 286 285 285 285 285 285 286 286 286 286 286 285 285 285 285 285 285 284 283 283 283 282 282 281 280 280 280 279 279 280 279 279 278 278 278 278 278 278 279 279 279 278 278 276 275 275 274 274 273 273 272 271 270
299 299 299 299 298 298 298 297 297 297 297 297 297 295 294 293 293 291 290 290 289 288 287 287 287 287 287 287 287 286 286 286 285 285 285 285 285 285 285 285 285 285 285 285 286 285 285 285 285 284 283 283 282 282 281 280 280 280 279 279 279 280 279 278 277 277 277 277 277 278 278 278 278 277 276 275 275 275 274 274 273 272 272 272 271
298 298 298 298 297 297 297 297 297 297 296 296 295 294 292 292 291 290 289 289 288 286 286 286 286 286 286 286 286 286 286 285 285 285 285 285 285 285 285 284 285 285 285 285 285 285 285 285 284 283 283 282 282 281 280 280 279 279 279 279 279 279 278 277 277 276 276 277 277 277 277 277 277 276 275 275 275 275 275 274 273 271 271 272 271
297 297 297 296 296 296 296 296 296 296 296 296 295 294 292 291 289 288 288 287 286 286 285 285 285 285 285 285 285 285 286 285 285 285 284 284 284 284 284 284 284 284 284 284 284 285 285 284 284 283 282 282 281 280 279 279 279 278 278 279 279 278 277 276 276 276 276 276 276 277 276 276 276 275 275 275 275 275 274 273 272 271 270 271 271
296 296 295 295 294 294 294 293 293 294 294 294 293 293 292 291 288 287 287 286 286 285 284 284 284 284 285 285 285 285 285 285 285 285 284 284 283 282 282 283 283 283 283 283 284 284 283 283 283 282 281 281 280 279 279 278 278 277 278 279 278 277 277 276 276 275 275 275 275 276 276 275 275 275 275 274 274 274 272 271 271 271 270 270 270
295 294 293 293 293 293 293 292 291 291 291 291 291 291 291 290 288 287 286 285 284 284 284 284 284 284 284 284 284 284 284 284 284 284 284 283 282 282 282 282 283 283 283 282 282 282 282 282 282 281 280 279 278 278 278 278 278 278 278 278 277 277 277 277 276 275 275 275 275 275 275 275 275 275 274 273 273 273 271 270 270 270 270 270 270
294 293 292 292 292 291 291 291 290 289 289 289 289 288 289 288 287 287 287 286 285 284 284 284 284 284 284 284 284 284 283 283 284 285 284 283 283 283 283 282 282 282 282 282 281 281 281 281 280 279 278 278 277 278 278 278 277 277 277 277 276 276 276 276 276 275 275 275 275 275 274 274 274 274 273 272 272 272 271 270 270 269 269 270 270
293 292 291 291 290 290 289 289 289 288 288 288 287 287 287 287 287 287 287 287 286 285 285 284 284 284 284 284 284 284 283 284 285 285 284 284 284 283 283 283 283 282 282 282 281 281 281 280 279 278 277 277 277 277 277 277 277 277 276 276 276 276 276 276 275 275 275 275 275 274 274 274 273 272 271 271 271 271 270 270 270 269 269 270 270
291 290 289 289 289 288 288 288 287 287 287 286 286 285 286 286 286 285 285 285 285 285 284 284 284 284 284 284 284 285 284 285 285 284 284 284 284 284 284 283 283 282 282 281 281 281 281 280 278 277 277 277 277 277 277 277 277 276 276 275 275 275 276 275 275 275 274 274 274 274 273 273 272 271 270 270 270 270 269 269 269 269 269 270 270
289 288 288 288 288 287 287 286 286 286 286 286 285 285 284 284 284 284 284 284 284 284 284 284 283 283 283 283 284 284 284 284 284 284 284 284 283 283 283 283 282 282 282 281 282 281 280 279 278 276 276 276 277 278 278 277 277 277 276 275 275 275 276 275 274 274 274 274 273 273 273 272 272 271 270 269 269 269 269 269 269 269 269 270 270
290 288 287 287 287 287 286 286 285 285 285 285 284 284 284 283 283 283 283 283 283 283 283 283 283 283 283 283 283 283 283 283 283 283 283 283 283 283 283 282 282 282 281 282 282 281 279 278 277 276 276 276 277 278 278 277 277 277 276 275 275 275 276 275 274 274 274 273 273 272 272 272 271 271 270 269 269 268 268 268 268 269 269 269 270
290 289 287 287 286 285 285 285 285 284 284 284 284 283 283 283 283 283 282 282 282 282 282 282 282 282 282 282 282 283 283 283 283 283 283 283 283 282 282 282 282 281 281 281 280 279 278 278 277 277 276 276 277 277 277 277 278 277 276 275 275 275 275 274 274 274 273 273 272 272 272 272 271 271 270 269 268 268 268 268 268 268 269 269 270
290 289 289 288 287 285 284 284 284 284 284 283 283 283 283 283 283 283 283 282 281 281 281 281 282 282 282 282 282 282 282 282 282 282 282 281 281 282 282 282 281 281 281 280 280 279 279 278 277 277 277 277 277 278 278 278 277 276 275 275 274 274 274 273 273 273 273 272 272 271 271 271 271 270 270 269 268 267 267 267 268 268 269 269 269
289 289 288 288 287 285 284 284 284 283 283 283 283 282 282 283 283 283 283 282 281 281 281 281 281 281 281 281 281 281 281 281 281 281 281 280 280 281 281 281 281 281 280 280 279 279 279 278 277 277 277 277 277 278 278 278 276 276 275 274 274 273 273 273 273 273 272 272 271 271 271 271 270 270 269 268 268 267 267 267 267 268 268 269 269
287 287 287 286 285 285 284 284 283 283 283 282 282 282 282 282 282 282 283 283 282 282 282 281 281 281 280 280 280 280 280 280 280 280 280 280 280 281 281 281 280 280 280 280 279 279 278 278 278 277 277 276 276 277 277 277 276 276 275 274 274 273 273 273 273 272 272 271 271 270 270 270 270 269 268 268 267 267 266 266 267 267 268 268 268
286 286 286 286 285 284 283 283 283 282 282 282 281 281 281 281 281 281 282 282 282 282 282 282 281 281 280 280 280 280 280 279 279 279 279 279 280 281 281 280 280 280 280 280 279 279 279 278 277 276 276 276 275 276 276 276 276 275 275 274 274 273 273 273 272 272 271 271 270 270 270 270 269 269 268 268 267 267 266 266 266 267 267 268 268
285 285 285 285 284 284 283 283 282 282 281 281 280 280 280 280 280 280 281 281 281 281 281 281 281 280 280 280 280 280 279 279 279 280 280 280 280 281 281 281 280 280 280 280 280 279 279 278 277 276 275 275 275 275 276 276 275 275 274 274 274 273 273 272 272 271 271 271 270 270 270 270 269 268 267 267 267 266 266 266 266 266 266 267 267
284 284 284 284 283 283 282 282 281 281 280 280 279 279 279 279 280 280 280 280 281 281 281 281 281 280 280 280 280 279 279 279 280 281 281 281 281 281 281 281 280 280 280 280 280 279 278 278 277 277 276 275 275 275 276 276 275 275 275 274 274 273 272 272 271 271 271 271 271 270 270 269 268 268 267 267 266 266 266 266 266 266 266 266 267
282 283 282 282 282 281 281 280 280 280 279 279 279 279 279 279 279 279 279 280 280 280 280 280 280 280 280 280 280 279 279 280 280 281 281 281 281 281 281 281 280 280 280 279 279 279 278 278 278 277 276 275 275 275 276 275 275 274 274 274 273 273 272 272 272 272 271 271 271 270 269 269 268 267 267 266 266 266 265 265 265 265 265 266 266
282 282 281 281 281 280 280 279 279 279 278 278 278 278 278 278 278 278 279 279 279 279 279 280 280 280 279 279 279 279 279 279 280 280 281 281 281 280 281 280 280 280 280 279 279 278 278 278 277 276 275 275 275 275 274 274 273 273 273 273 273 272 272 272 272 272 271 271 270 270 269 268 267 267 266 266 265 265 265 265 265 265 265 265 266
281 280 280 280 280 279 279 278 278 278 277 277 277 277 277 277 277 277 277 277 278 278 278 278 279 279 279 279 279 279 279 279 279 279 280 280 280 280 280 280 280 280 279 279 279 278 278 277 277 276 275 275 275 275 274 274 274 273 273 273 273 272 272 272 272 272 271 270 270 269 269 268 267 266 266 265 265 264 264 264 264 264 264 265 265
279 279 279 278 278 277 277 277 277 277 276 276 276 276 276 276 275 276 276 276 276 276 276 277 277 277 277 277 277 277 278 278 278 278 279 279 279 279 279 279 279 279 279 278 278 278 277 277 276 276 275 275 275 275 275 275 275 274 273 273 273 273 272 272 272 272 271 270 269 269 268 267 266 266 265 265 264 264 263 263 264 264 264 264 264
278 278 277 277 277 276 276 276 275 275 275 275 275 275 275 275 274 274 274 274 274 275 275 275 275 276 276 276 276 276 276 276 277 277 277 277 278 278 278 278 278 278 278 278 277 277 277 276 276 275 275 274 274 275 275 275 274 274 274 274 273 273 272 272 272 272 271 270 269 268 267 266 266 265 265 264 264 263 263 263 263 263 263 263 263
277 277 277 276 276 275 275 275 275 274 274 274 274 274 274 274 274 273 273 273 273 273 273 274 274 274 274 274 274 275 275 275 275 275 276 276 276 276 276 277 277 277 277 277 276 276 276 276 275 275 274 274 274 274 274 274 273 273 273 273 273 273 273 273 272 271 270 269 268 267 266 266 265 265 264 264 263 263 263 263 262 262 263 263 263
277 276 275 275 274 274 274 274 273 273 273 273 272 272 272 272 272 272 272 272 272 272 272 272 273 273 273 273 273 273 274 274 274 274 274 274 274 274 274 275 275 275 275 275 275 275 275 275 275 274 274 273 273 273 273 273 272 272 272 272 272 272 272 272 271 270 269 268 267 267 266 265 265 264 264 263 263 263 262 262 262 262 262 263 263
276 275 275 274 274 273 273 273 273 273 272 272 272 271 271 271 271 271 271 271 271 271 271 271 272 272 272 272 272 272 272 272 272 272 272 272 272 273 273 273 273 273 273 273 273 273 273 273 273 273 273 272 272 272 272 272 271 271 271 271 271 271 271 270 270 269 268 267 267 266 266 265 265 264 264 263 263 263 262 262 262 262 262 262 263
275 274 274 274 274 273 273 273 273 272 272 271 271 271 271 270 270 270 270 270 270 270 270 270 271 271 271 271 271 271 271 271 271 271 271 271 271 271 271 271 271 271 271 272 272 272 272 272 272 272 271 271 271 271 271 271 270 270 271 271 271 271 270 270 269 268 267 267 267 266 266 265 265 264 263 263 263 262 262 262 261 261 261 261 262
274 274 274 274 274 273 272 272 271 271 270 270 270 270 270 270 269 269 269 269 269 269 269 270 270 270 270 270 270 270 270 270 270 270 270 270 270 270 270 270 270 270 270 270 270 270 270 270 270 270 270 270 270 270 270 270 270 270 270 271 271 270 270 269 268 267 267 267 267 266 266 266 265 264 263 263 262 262 262 262 261 261 261 261 261
274 274 273 273 273 272 272 271 271 270 270 269 269 269 269 269 269 269 269 269 269 269 269 269 269 269 269 269 269 269 269 269 269 269 269 269 269 269 269 269 269 269 269 269 269 269 269 269 269 269 269 269 269 269 269 269 269 269 270 270 270 269 268 267 267 267 267 267 267 266 266 266 265 265 263 262 262 262 262 261 261 261 260 260 261
273 273 273 272 272 271 271 270 270 269 269 268 268 268 268 268 268 268 268 268 268 268 268 268 268 268 268 268 268 268 268 268 268 268 268 268 268 268 268 268 268 268 267 267 267 268 268 268 268 268 268 268 268 268 268 268 268 268 269 269 269 268 267 267 267 267 267 267 266 266 266 266 265 265 264 263 262 261 261 261 261 260 260 260 260
Wind_Speed
21 23 24 25 26 27 28 28 28 27 28 27 27 30 31 29 29 30 30 30 33 36 37 38 39 37 35 37 37 34 30 26 23 22 22 23 24 25 26 27 28 28 27 26 24 22 20 19 17 15 13 11 10 9 8 7 7 6 6 5 3 2 2 3 4 7 10 9 10 13 13 14 16 16 16 18 18 19 22 22 23 28 31 32 29
19 22 24 26 27 28 28 28 28 29 29 28 27 28 29 30 31 31 31 32 34 35 37 38 39 37 36 37 37 34 31 27 25 24 25 26 26 26 29 30 29 29 28 26 24 22 20 18 16 14 13 11 10 9 8 7 7 6 4 4 3 2 2 2 3 5 9 11 11 13 14 14 16 16 16 18 19 21 22 22 24 27 30 31 28
17 20 23 24 26 26 27 28 29 29 30 29 29 29 30 30 32 32 32 32 33 35 36 38 39 37 36 37 37 35 32 29 26 25 26 27 28 29 31 32 30 29 28 27 25 22 20 18 16 15 13 12 11 10 9 8 6 5 4 3 3 3 3 3 3 4 8 11 11 12 15 15 15 16 16 17 20 22 22 22 23 27 31 32 29
14 17 19 20 23 25 26 27 29 30 30 30 30 30 30 30 30 31 31 32 33 34 35 37 39 37 36 37 37 35 32 28 25 24 25 27 29 32 33 32 30 29 28 26 24 22 20 18 16 15 14 12 11 10 9 8 6 4 4 3 3 3 3 3 3 4 7 9 10 12 14 15 15 15 16 19 22 23 21 22 25 26 29 33 33
12 15 17 19 21 23 24 26 28 30 31 31 31 30 30 30 30 30 31 32 34 35 36 37 38 36 35 36 36 34 30 26 24 24 25 28 31 33 33 32 30 28 27 25 23 21 19 18 17 16 14 13 12 11 9 7 6 5 4 3 3 3 3 2 3 4 6 9 12 12 12 13 14 14 15 21 26 25 22 24 26 26 28 32 33
12 15 18 19 21 23 24 26 28 30 31 31 31 31 31 31 31 31 32 33 35 35 37 39 38 35 33 35 36 34 30 26 25 25 27 30 33 33 32 31 30 27 25 23 21 20 19 17 17 16 15 14 12 11 9 7 6 5 4 3 3 2 1 2 3 5 6 9 11 12 12 12 13 13 14 20 24 25 26 29 28 26 27 32 34
14 15 17 19 21 23 24 26 27 28 29 29 30 31 31 31 31 31 32 34 35 36 37 38 37 34 34 36 37 35 30 27 26 27 30 32 34 33 32 31 28 26 24 22 21 20 19 18 17 16 15 14 12 10 8 7 6 5 4 4 3 2 1 2 4 5 6 8 9 10 11 11 11 12 14 18 20 20 24 30 33 32 29 30 33
14 15 16 18 20 22 23 23 24 26 27 28 28 29 30 30 31 31 32 34 35 36 38 39 38 35 35 36 36 33 30 27 27 29 32 34 34 33 32 30 28 26 24 23 22 21 19 18 17 16 15 13 11 9 8 7 7 5 4 3 3 2 1 2 3 4 6 7 8 9 10 10 10 11 15 19 20 21 23 25 28 33 33 31 33
13 15 15 17 18 19 20 21 22 23 24 25 26 27 28 28 29 30 31 33 34 35 37 38 38 36 35 34 32 30 29 28 29 32 35 36 35 34 32 29 28 26 25 24 22 21 20 18 17 16 14 12 10 9 8 7 7 6 5 4 3 3 3 3 3 3 5 6 7 8 9 9 10 13 15 16 17 19 22 23 23 27 31 33 33
12 14 15 16 16 17 18 19 20 21 22 23 24 24 25 26 27 28 30 31 32 33 33 35 36 36 36 34 31 30 30 29 31 34 36 36 35 34 31 29 28 27 26 25 23 22 20 19 17 15 13 12 10 9 8 7 7 7 6 6 5 4 4 4 3 3 4 6 6 7 8 9 10 12 13 14 15 16 18 20 22 25 27 30 31
12 14 15 15 15 16 17 18 18 19 20 21 22 23 24 25 26 27 28 29 30 31 32 34 35 35 36 33 30 30 31 30 33 36 36 36 35 33 31 29 28 27 26 25 24 23 21 19 17 15 14 12 11 10 9 8 8 8 7 6 5 5 5 5 4 4 4 5 5 6 6 8 10 11 12 13 14 15 16 16 17 20 20 20 23
13 14 15 15 16 16 17 17 18 19 20 20 21 22 23 24 25 26 28 29 30 31 32 33 34 34 33 30 30 31 32 33 35 37 36 35 33 31 30 29 28 27 26 25 25 23 21 19 18 16 15 13 11 10 9 8 9 8 7 5 5 5 5 6 6 5 4 5 6 6 5 7 10 11 11 12 13 14 15 15 14 16 17 15 18
15 15 16 16 15 16 16 17 18 19 20 21 22 23 23 24 25 27 28 29 30 32 32 33 33 32 30 30 31 32 33 35 37 37 35 34 32 31 30 29 28 27 27 26 24 23 21 20 19 17 15 13 12 10 9 9 9 8 7 6 5 6 6 6 6 6 6 5 6 6 6 7 10 10 10 11 14 14 13 14 13 13 15 17 20
17 17 17 16 16 16 16 17 17 18 19 21 22 23 24 25 26 27 29 30 31 32 32 33 32 31 30 31 32 34 35 37 37 36 35 33 32 30 29 28 28 27 27 25 23 22 20 19 19 17 16 14 12 11 10 10 10 9 7 7 7 7 7 7 6 6 6 5 6 6 7 7 9 11 12 13 13 13 13 14 16 16 18 21 23
19 19 18 18 18 18 17 18 19 19 20 21 21 22 24 25 26 27 29 30 31 33 33 33 32 30 30 32 33 35 36 37 37 36 35 34 32 30 29 28 28 27 26 24 22 21 20 19 18 17 16 15 14 12 12 11 10 9 8 8 9 9 8 8 7 7 6 6 6 8 8 10 12 13 14 14 12 12 13 15 17 18 20 22 23
21 21 21 20 20 20 20 20 21 21 21 21 22 22 23 25 26 27 28 29 30 31 32 31 31 30 31 33 34 35 37 37 37 36 35 34 32 30 28 28 27 26 25 24 22 21 20 19 18 17 17 16 15 14 13 12 11 10 10 10 10 10 9 9 8 7 6 6 6 8 10 12 13 14 13 12 11 12 14 16 16 16 17 20 21
23 23 23 22 22 22 22 22 22 23 23 23 23 24 24 25 26 26 27 29 29 30 29 29 30 32 33 34 35 36 37 38 37 36 35 34 32 30 29 28 27 26 25 24 23 22 21 20 19 18 17 17 16 15 14 13 12 12 12 11 11 10 9 9 7 6 5 6 7 8 10 11 12 12 11 11 11 12 13 14 13 13 13 15 16
24 24 24 23 23 23 23 23 24 24 24 24 24 25 25 26 26 27 28 29 29 29 29 29 30 32 33 35 36 38 38 38 37 37 36 34 33 31 31 29 28 26 25 24 23 23 22 21 19 19 18 17 16 15 14 13 13 13 13 12 11 11 10 8 6 5 5 6 6 8 9 10 10 10 10 11 11 11 11 11 12 11 11 11 13
24 24 23 22 22 22 23 23 24 24 25 25 25 25 25 25 25 26 26 27 28 28 28 29 30 31 32 34 35 37 38 38 38 37 36 34 33 32 31 30 29 27 26 25 24 23 23 21 21 20 19 17 16 15 14 14 14 14 13 13 12 11 9 8 6 5 5 6 6 7 8 8 9 9 9 10 10 9 9 10 10 9 10 11 13
21 21 21 21 21 22 22 23 23 23 23 23 23 24 24 24 24 24 24 24 25 27 28 29 30 30 31 31 32 35 37 38 38 37 36 35 33 33 32 31 30 28 27 26 26 25 24 23 22 21 20 18 17 15 14 14 14 14 14 13 12 10 9 8 7 6 6 6 6 7 8 8 8 8 9 9 9 9 9 10 10 9 10 12 13
18 18 18 19 20 21 22 22 23 22 22 21 22 22 23 23 24 24 24 23 24 25 26 27 28 28 29 29 30 32 34 36 37 37 36 35 34 33 32 30 30 29 29 28 27 26 25 24 24 22 20 18 16 15 14 14 13 14 13 12 11 10 9 8 7 6 6 6 7 7 7 7 7 8 9 9 8 8 10 11 11 11 11 13 15
16 16 17 17 18 19 21 21 21 22 21 21 21 22 22 22 22 23 23 23 24 25 26 26 27 27 27 26 27 29 31 33 35 36 35 35 34 32 31 30 30 29 29 29 28 26 25 24 23 22 20 18 16 15 15 14 14 13 11 11 11 10 9 8 7 7 7 8 8 8 7 7 8 8 9 8 8 9 11 13 13 12 12 14 16
16 15 15 16 16 17 18 18 19 19 19 19 20 20 19 20 21 22 23 24 25 26 26 27 28 27 26 25 25 27 29 31 33 35 35 35 33 32 31 31 30 29 28 28 27 26 25 24 22 21 20 17 16 15 14 14 15 13 11 12 12 10 8 8 8 8 9 9 9 9 8 7 8 9 9 9 9 10 11 12 12 11 11 13 14
15 16 15 15 15 16 17 17 17 18 18 18 18 19 19 20 21 22 23 25 26 27 27 28 28 28 27 26 26 28 29 30 32 33 35 35 34 33 32 31 30 28 26 26 25 24 23 22 21 20 19 17 16 15 15 15 15 13 13 13 12 10 9 10 9 10 10 10 10 9 8 8 9 10 9 10 11 10 10 11 11 11 12 13 14
16 16 16 16 16 16 17 17 18 18 19 20 20 21 21 22 22 23 24 27 29 29 29 30 31 31 31 30 29 29 28 29 30 32 33 34 34 33 33 31 28 27 26 25 24 23 22 21 19 18 18 17 16 15 16 16 15 14 14 15 12 11 11 11 11 11 12 11 11 10 9 9 10 10 10 10 10 10 10 11 11 11 12 13 15
16 16 16 15 15 16 16 16 17 17 18 20 21 22 24 24 25 26 27 29 31 32 32 32 32 31 31 31 30 29 27 27 29 31 32 33 32 31 31 30 28 26 25 24 23 22 21 19 18 17 18 18 17 18 18 18 17 17 17 16 14 13 13 13 13 13 13 12 11 11 10 10 10 10 10 10 10 9 10 11 11 11 10 12 15
16 16 16 15 15 16 16 17 17 17 18 20 20 22 24 25 26 28 30 31 32 31 31 33 32 32 32 31 31 30 29 28 29 31 32 33 32 30 30 30 29 27 26 25 24 22 20 18 18 18 18 18 19 20 20 19 19 19 19 17 16 16 16 15 15 15 14 13 12 12 11 10 10 9 9 10 10 9 8 9 11 11 11 12 14
15 16 16 15 16 16 16 17 18 18 19 20 21 22 24 26 27 29 31 32 33 32 33 34 34 34 34 34 33 31 29 29 33 35 35 35 35 33 32 32 31 30 30 28 25 22 20 19 19 19 20 20 21 21 21 21 21 21 20 19 19 18 17 16 17 16 16 14 13 12 11 10 9 9 9 9 9 9 8 8 9 10 11 11 12
15 16 16 15 16 17 17 17 17 18 19 20 19 21 23 25 27 28 28 31 32 32 34 36 35 34 34 36 37 35 33 35 40 40 36 36 37 37 36 35 35 33 32 30 27 24 22 22 22 23 23 24 23 23 24 24 23 23 22 22 21 20 18 18 18 18 16 15 13 12 10 10 9 8 9 9 9 9 9 8 8 9 10 10 12
16 16 16 16 17 17 17 17 17 17 19 19 19 18 20 22 24 24 24 26 28 28 28 31 33 32 32 34 37 38 37 38 39 37 35 34 35 36 36 35 34 33 30 29 28 27 26 26 27 27 27 26 26 26 27 26 26 26 25 24 23 22 20 20 20 19 17 15 14 12 11 10 9 8 8 9 9 9 8 7 7 8 9 9 11
17 17 16 16 17 17 17 17 17 16 17 18 19 17 17 18 21 22 22 22 25 26 27 27 29 30 29 30 32 34 34 33 32 33 35 34 32 33 34 33 31 31 30 29 29 30 30 29 28 27 27 27 28 30 30 29 29 29 27 26 26 24 23 22 21 20 18 16 14 13 11 10 9 8 9 10 10 9 7 6 7 8 8 9 11
17 17 16 15 16 16 15 16 17 16 15 16 17 17 16 15 17 20 21 21 22 25 27 27 28 27 27 28 30 32 33 32 29 29 32 34 33 31 30 28 28 27 26 28 29 30 31 30 29 27 27 28 30 31 31 31 31 31 29 28 27 26 24 23 22 20 19 17 15 13 12 10 9 9 9 9 9 8 8 7 8 8 8 8 10
15 15 15 15 16 15 14 14 16 16 16 16 16 16 16 15 13 15 19 21 22 23 25 27 28 27 27 27 29 31 33 34 31 28 28 30 33 31 26 24 24 23 25 28 29 29 30 30 30 29 29 30 31 32 32 32 32 31 30 29 27 25 24 23 22 20 19 17 15 14 13 11 10 9 9 8 8 9 9 9 9 8 7 8 10
12 12 13 13 15 15 14 14 15 15 15 16 16 16 16 14 13 13 15 17 19 21 23 25 26 27 26 26 27 28 30 31 32 31 27 26 29 30 25 22 21 22 26 29 30 29 30 31 31 30 31 31 33 34 34 34 33 31 30 28 26 23 22 22 21 20 18 17 16 14 13 12 10 9 8 8 8 9 10 9 9 8 7 7 9
11 10 10 11 12 12 12 12 13 13 13 14 15 16 15 14 13 13 13 14 16 18 21 23 25 26 26 25 25 26 25 26 28 29 27 24 25 26 24 22 23 26 28 30 31 31 31 31 31 33 33 33 34 35 35 35 33 31 30 28 25 24 23 22 21 20 19 17 16 15 13 12 11 9 9 8 8 9 10 9 9 9 8 8 9
10 9 9 10 10 10 10 10 11 11 11 12 13 13 14 13 13 12 11 12 13 14 16 18 21 22 23 24 24 23 22 22 23 25 26 25 24 25 27 29 31 31 31 31 32 32 32 32 33 34 33 32 33 34 34 34 33 31 30 28 26 25 24 23 22 21 19 18 16 15 14 13 12 10 9 9 9 9 9 10 9 9 8 8 9
9 9 9 10 9 9 8 9 9 9 9 9 10 10 10 11 11 11 10 11 12 13 13 14 16 17 18 21 22 21 21 21 20 21 23 24 24 27 31 32 32 32 32 33 34 34 35 35 34 32 31 31 32 33 33 33 32 30 29 27 26 25 24 24 23 22 20 18 17 16 15 14 12 11 11 10 10 9 9 9 10 9 8 8 10
9 8 8 8 8 8 8 7 8 8 8 8 8 8 7 8 9 9 9 9 11 12 12 13 15 17 18 19 20 19 19 18 17 17 20 22 25 29 32 31 31 32 33 34 34 35 35 34 32 31 31 31 32 33 33 32 32 31 29 27 27 26 25 24 23 22 21 19 18 17 15 14 13 12 12 11 11 10 9 9 9 9 8 8 9
8 8 7 7 7 7 7 7 7 7 8 8 8 8 8 7 7 8 9 9 10 11 12 13 15 18 19 19 18 17 17 16 17 19 22 24 28 30 31 30 31 32 33 32 32 33 34 34 33 32 32 32 32 33 33 33 32 31 30 29 28 28 27 26 24 23 22 21 19 17 16 15 14 13 12 12 12 11 10 9 10 10 9 9 9
8 7 7 7 7 7 7 6 6 7 8 8 8 8 8 8 7 8 8 9 10 11 12 13 15 18 20 20 19 19 20 20 20 21 23 25 28 30 30 30 31 33 34 34 33 33 34 35 35 34 33 33 33 33 34 34 33 32 31 30 30 29 28 27 25 24 23 21 20 18 17 16 15 14 13 13 13 12 11 10 10 10 9 9 10
7 6 6 6 6 7 7 7 7 7 8 8 7 8 8 8 8 8 8 8 9 10 11 12 13 15 18 19 20 21 23 23 22 22 24 26 28 30 31 32 33 34 35 35 34 33 33 34 34 34 33 33 32 32 33 33 33 32 31 31 30 29 29 28 27 25 24 22 21 19 18 18 17 15 14 13 12 11 12 12 11 10 9 9 10
7 6 6 6 6 6 6 6 7 7 7 7 7 7 7 7 8 8 8 8 8 9 10 11 11 12 15 17 18 20 23 25 24 24 25 26 28 30 32 33 34 35 35 36 34 33 33 33 34 34 34 34 34 34 34 34 35 35 33 32 31 31 31 30 28 26 25 23 22 21 20 19 17 16 15 14 13 12 13 12 11 10 9 9 9
7 6 6 5 5 5 5 5 6 6 6 7 7 7 7 7 7 8 8 9 9 10 11 11 12 12 13 15 16 18 22 25 26 27 27 27 28 29 31 32 34 35 35 35 35 34 33 34 34 34 35 34 34 34 35 36 37 36 36 34 33 33 32 31 29 27 26 24 23 22 21 19 18 17 16 15 14 14 13 12 11 10 9 9 9
7 7 6 5 5 5 5 5 5 5 6 6 7 7 8 8 8 8 8 9 10 11 12 13 13 13 13 14 15 18 21 24 25 27 28 28 28 30 31 31 32 33 33 34 35 35 35 35 35 35 35 35 33 34 35 36 37 37 37 36 35 35 34 32 30 28 26 25 23 23 22 21 19 18 17 16 15 14 14 13 12 10 9 8 9
6 6 5 5 4 4 4 4 4 5 5 5 5 6 6 7 8 8 9 9 10 11 12 12 13 13 14 14 15 18 21 23 24 25 27 28 29 30 31 31 32 32 33 33 34 35 35 36 36 36 36 35 34 33 34 36 37 37 37 36 35 35 33 31 28 27 25 24 23 23 23 22 20 19 18 16 15 15 15 14 12 11 9 9 9
5 5 5 4 4 3 2 2 3 3 3 4 4 4 5 5 6 8 9 9 9 10 11 11 12 13 14 14 16 17 19 21 23 25 26 27 28 29 29 30 31 32 33 34 34 35 36 36 36 37 36 36 35 34 34 36 38 38 37 36 35 33 30 28 27 26 25 24 23 24 23 22 21 19 17 16 15 15 14 14 13 12 11 9 9
4 4 4 3 3 2 1 1 2 3 4 4 5 5 5 6 6 7 9 9 10 11 12 12 12 13 14 15 16 17 18 19 21 23 24 25 27 27 27 27 28 30 32 33 34 35 36 36 37 37 36 35 35 35 35 35 37 38 37 35 34 32 29 28 27 26 25 24 24 24 24 23 22 20 18 17 16 16 15 14 14 13 12 10 9
4 3 3 2 2 2 2 3 4 5 5 6 7 7 8 8 8 8 9 10 11 12 13 13 14 14 15 16 17 17 18 19 20 21 22 23 24 25 25 26 27 28 29 31 32 34 35 36 36 36 36 35 35 35 35 35 36 37 37 35 33 32 30 28 28 26 25 25 25 24 24 24 23 21 19 18 18 17 16 15 14 13 12 11 11
4 4 4 4 5 5 5 6 6 6 6 7 8 8 9 10 10 10 10 10 11 11 12 13 14 14 15 16 16 17 18 19 20 21 21 22 23 23 23 24 24 25 26 28 30 31 33 34 34 35 35 35 35 35 35 35 36 36 36 35 33 31 29 28 27 26 25 25 25 25 24 24 24 23 21 20 18 18 17 16 15 14 13 13 12
4 4 5 5 6 6 7 7 8 9 9 9 10 10 10 10 10 10 10 11 11 11 12 13 13 14 15 15 16 16 17 18 19 19 20 21 21 21 21 22 23 23 24 26 27 28 29 31 32 32 33 33 33 34 34 35 36 36 35 33 31 29 28 27 27 26 26 26 26 25 24 24 24 23 22 21 20 19 19 18 17 16 15 14 13
4 5 5 6 6 7 8 8 9 9 10 10 9 9 10 10 10 10 11 11 11 12 12 13 14 14 15 15 16 16 17 18 19 19 20 20 20 20 20 21 22 23 24 24 24 25 27 29 30 30 31 31 32 32 33 34 35 34 33 31 30 28 27 27 26 27 27 27 26 24 24 23 23 23 23 21 21 20 20 19 18 17 16 15 13
Wind_Direction
220 218 214 211 213 214 213 213 214 215 215 215 214 212 210 211 210 208 207 206 203 200 200 201 203 204 203 200 199 199 198 200 206 213 211 205 204 204 199 191 186 184 182 182 182 181 181 182 184 184 185 185 180 177 175 171 171 172 168 166 179 191 165 183 236 275 295 302 302 315 325 329 336 344 338 337 343 344 347 351 353 355 353 350 348
220 220 219 218 219 219 218 217 217 218 218 218 216 213 211 210 209 208 209 208 205 203 203 203 204 204 203 201 200 199 199 203 209 215 216 211 206 203 195 188 184 183 182 182 181 182 183 184 185 185 186 186 182 178 177 177 174 175 176 165 175 223 225 210 241 268 286 299 308 318 328 331 334 340 338 337 341 342 345 351 352 351 350 347 344
223 227 228 227 225 222 221 219 218 218 218 218 217 214 211 209 210 212 212 209 207 207 206 205 204 202 201 201 200 199 198 203 212 218 218 215 209 200 191 186 185 184 182 182 182 182 183 185 186 186 187 185 183 182 179 181 179 178 190 186 190 230 261 264 248 252 281 299 310 318 326 330 332 335 335 335 338 342 347 350 347 346 348 349 345
226 228 230 231 227 223 220 216 214 213 213 214 214 213 211 211 214 215 213 210 209 207 206 205 203 200 200 200 199 198 197 200 210 217 219 216 207 195 187 185 186 185 184 183 183 184 185 187 187 187 188 185 183 184 182 182 185 184 197 211 221 253 282 288 266 261 278 293 305 315 322 326 329 333 333 334 339 345 349 346 342 343 346 349 348
218 221 225 229 227 224 221 219 218 217 217 217 217 217 216 217 218 217 214 212 209 206 204 202 201 200 201 200 199 199 199 202 210 216 217 211 199 189 185 184 184 184 185 185 184 186 188 189 189 187 187 186 185 185 185 184 189 192 202 223 243 266 290 294 280 278 278 287 301 315 322 322 327 334 334 336 342 347 346 342 343 343 342 344 347
207 214 218 222 223 223 224 224 223 222 221 221 221 221 220 220 219 217 215 212 208 205 203 201 200 200 201 201 200 201 203 208 214 216 212 201 191 186 185 184 183 184 185 185 186 188 189 190 190 188 188 189 187 185 185 187 193 200 208 227 245 257 276 277 282 291 290 290 299 312 319 321 328 335 336 340 345 345 342 340 342 343 342 341 343
207 211 214 216 220 221 222 223 223 223 224 223 222 221 220 220 219 217 215 212 208 206 203 199 198 200 202 201 201 202 205 210 214 211 203 194 188 185 185 183 183 184 184 186 188 189 191 191 189 188 189 190 188 185 186 191 196 204 213 225 241 244 239 267 282 296 296 295 301 309 315 321 329 334 335 342 346 345 343 342 339 338 339 338 338
216 217 215 214 218 220 221 222 222 222 223 223 222 220 218 217 217 215 213 210 208 206 203 200 197 198 201 200 198 200 204 207 208 203 195 190 187 186 186 184 183 183 184 187 189 190 192 191 189 189 190 190 189 187 190 195 197 205 218 225 231 233 239 262 281 297 294 295 304 309 313 321 332 339 340 347 349 344 343 340 331 330 332 332 335
225 223 221 219 220 221 222 223 223 222 222 221 220 218 216 214 213 212 210 208 207 205 202 199 196 196 197 197 198 201 204 205 204 199 192 189 188 187 186 185 184 184 185 187 189 191 191 190 189 190 191 189 189 190 193 199 199 204 216 224 225 228 239 249 267 291 292 296 305 310 317 325 338 346 346 349 347 335 333 333 325 324 327 328 334
230 227 226 225 224 223 224 225 224 223 221 220 218 216 214 212 211 209 206 204 203 201 198 195 194 194 193 194 199 203 203 203 201 197 194 192 189 187 185 185 186 187 188 187 188 190 190 190 189 189 190 189 189 191 195 201 206 210 218 226 229 231 238 248 252 264 280 292 303 312 321 328 339 346 341 336 334 328 329 331 325 325 330 330 333
230 230 227 227 226 224 224 224 223 220 218 217 217 215 213 210 208 206 203 200 199 198 195 192 192 193 192 194 200 203 202 200 197 194 194 193 191 188 186 186 187 189 191 190 189 189 189 188 187 186 189 190 190 192 196 203 212 216 220 227 235 237 238 244 243 244 263 279 292 307 321 325 329 335 330 326 328 327 326 325 320 323 330 331 327
226 228 227 226 224 222 221 220 218 216 214 215 214 212 210 207 204 202 201 200 199 196 193 192 191 192 192 195 201 203 200 196 193 192 192 192 192 190 189 188 189 190 192 192 191 190 188 186 186 188 191 192 192 194 196 205 214 216 218 222 229 237 242 247 250 250 255 264 283 302 317 319 319 321 323 324 323 320 319 317 316 318 320 318 310
220 223 223 223 223 220 219 217 214 213 212 212 210 207 204 203 202 202 201 199 197 194 193 193 192 192 195 197 200 200 197 193 191 191 191 191 192 192 191 191 191 192 194 194 193 192 189 187 187 189 191 192 193 195 198 207 212 211 215 220 221 229 240 250 258 260 259 260 277 296 306 309 308 307 310 313 314 315 313 311 312 311 309 308 303
214 218 218 218 219 217 216 214 213 213 212 210 208 205 204 204 203 202 200 196 194 193 193 193 192 194 197 198 197 196 194 191 190 191 190 190 192 192 191 191 192 193 195 195 194 193 191 191 191 192 192 192 195 197 201 207 208 205 210 217 218 224 236 245 250 254 255 254 265 281 289 289 288 290 294 299 304 308 307 306 309 308 305 304 303
209 213 214 213 213 212 211 211 211 211 211 209 208 207 205 202 199 199 198 197 196 195 193 192 194 196 197 196 194 193 191 189 189 189 190 190 191 192 192 193 193 194 195 195 195 194 194 194 195 195 194 195 198 200 204 209 208 205 208 216 219 223 232 239 239 240 246 248 258 272 280 281 281 284 291 297 300 300 297 299 305 310 310 309 309
207 210 210 209 209 209 209 208 207 207 207 205 204 205 203 200 197 197 197 197 196 194 192 193 196 196 194 193 192 190 188 188 189 189 190 190 190 191 192 193 194 194 194 194 195 196 196 196 197 198 197 199 201 203 208 211 209 207 208 214 220 224 229 235 233 234 248 261 271 280 285 287 289 290 292 295 295 293 296 303 312 319 316 313 313
207 208 208 209 209 209 208 206 205 205 204 202 201 202 200 199 198 196 195 192 192 193 195 197 198 195 192 192 191 188 187 188 189 190 190 191 191 191 192 193 194 194 194 194 196 197 197 199 201 201 201 203 204 205 210 213 210 208 210 215 221 224 225 230 230 231 251 269 277 285 291 291 291 292 293 293 291 292 299 307 317 323 320 316 314
208 207 209 210 209 208 207 205 205 204 204 203 203 202 200 200 199 198 197 195 195 197 198 197 196 195 194 193 192 190 188 188 189 190 191 193 193 193 194 194 193 193 193 194 196 198 199 201 204 206 206 206 207 208 211 214 213 212 214 218 223 225 224 227 231 235 250 265 274 283 288 289 290 291 294 296 294 294 298 304 312 318 314 308 305
208 208 209 209 208 208 206 205 205 205 204 204 204 202 201 201 201 199 198 198 197 197 197 195 193 193 193 192 192 191 189 187 189 192 192 194 195 195 195 194 192 192 193 194 196 199 201 202 205 208 210 210 210 211 213 215 217 217 217 220 225 228 229 230 232 239 249 260 273 279 279 282 286 291 299 305 305 302 301 302 307 307 300 296 298
208 209 210 208 207 207 206 204 205 205 206 204 203 203 201 200 199 197 196 198 198 196 195 194 191 189 190 190 190 192 191 189 190 193 194 195 197 198 197 196 194 194 195 195 197 199 201 203 207 208 210 211 212 212 213 215 219 221 220 223 226 228 233 236 233 238 249 257 266 270 272 279 290 300 307 314 317 315 309 304 300 293 287 288 290
207 206 207 208 209 209 207 208 208 209 210 209 206 205 204 203 202 199 197 197 196 193 191 189 187 185 187 189 191 193 194 193 192 194 195 196 198 200 200 200 201 200 198 198 200 202 202 205 208 208 208 211 211 210 210 211 217 223 223 225 229 230 235 244 245 245 253 261 264 266 271 280 294 305 314 321 325 317 305 298 295 289 280 277 281
203 203 204 207 210 211 209 210 210 210 211 210 207 205 205 205 203 199 196 193 190 187 186 186 185 184 185 189 192 193 195 196 194 195 196 198 200 202 203 205 206 204 202 201 202 204 207 208 209 207 207 210 210 209 209 207 212 221 223 224 230 235 238 245 250 253 259 262 264 269 278 287 297 305 311 316 318 311 304 298 293 288 278 272 272
197 199 203 206 209 210 209 208 209 208 207 206 204 202 201 200 198 195 193 190 187 185 185 185 184 183 184 188 193 195 197 197 197 197 198 200 202 204 205 207 208 207 207 206 205 207 209 210 210 207 206 209 211 208 207 209 214 219 219 221 231 239 242 245 249 253 258 261 263 271 280 286 294 301 303 305 305 304 304 300 294 289 284 279 276
193 195 201 205 207 209 209 208 208 208 207 206 203 199 198 196 194 193 193 190 186 184 185 185 184 185 186 189 193 197 199 200 201 201 201 202 204 205 206 208 209 209 210 211 211 210 211 212 211 207 206 211 212 207 207 213 218 219 218 224 234 240 240 243 247 249 253 257 261 269 279 283 288 292 292 296 302 305 310 313 309 304 299 296 295
192 194 199 202 204 205 206 207 208 208 207 207 203 200 198 194 190 191 191 189 188 186 186 187 188 189 190 192 194 197 199 201 202 204 204 204 205 207 208 208 209 211 211 213 214 214 214 215 212 208 209 212 208 204 209 215 216 216 221 229 236 239 237 239 244 246 251 255 259 266 273 278 283 289 290 295 304 315 324 325 319 313 308 301 296
188 191 194 196 198 200 198 198 202 204 204 205 204 202 201 195 191 191 192 192 192 191 189 190 191 192 194 196 196 196 196 200 204 206 206 206 206 208 209 209 210 212 212 214 215 215 214 214 212 209 210 209 205 207 213 216 216 219 226 233 236 235 235 237 240 243 247 251 258 265 270 274 280 287 291 298 310 324 327 319 314 316 313 301 293
184 186 187 188 191 194 192 192 194 196 198 201 202 203 203 199 195 195 194 193 193 193 192 193 194 195 198 199 198 198 198 199 203 205 206 205 204 205 207 208 210 211 212 212 212 211 209 209 209 210 208 205 207 213 218 220 221 225 230 233 233 233 235 237 240 242 245 249 257 263 269 275 282 287 292 297 307 318 318 309 309 314 310 300 294
183 182 182 184 185 187 189 191 191 193 196 199 201 202 204 203 202 202 202 200 198 198 198 198 199 201 201 199 198 198 199 202 206 207 206 204 202 203 204 205 208 210 210 209 207 205 204 204 204 204 204 204 209 217 221 222 225 229 231 232 232 232 235 238 240 242 243 247 253 259 265 273 280 286 291 295 302 310 313 306 303 305 305 299 294
179 178 179 182 183 184 188 191 191 193 197 199 201 206 209 208 208 211 213 211 209 207 206 206 206 207 206 203 200 198 201 208 212 211 208 206 205 204 204 205 207 209 209 208 204 200 200 201 202 202 204 207 212 218 222 223 225 227 230 231 232 233 234 237 239 241 242 244 248 253 260 268 275 280 284 290 296 300 303 301 297 299 301 295 288
170 174 176 179 182 183 186 189 192 195 198 198 199 206 213 214 213 215 218 219 216 215 214 214 214 214 213 212 210 208 210 215 217 214 211 210 209 208 207 207 207 208 207 205 203 202 202 203 205 208 209 211 214 219 222 223 223 225 227 229 230 232 234 236 238 239 242 244 246 249 253 258 266 272 274 279 286 289 291 293 288 288 291 288 284
168 174 178 181 184 184 186 190 191 194 198 200 201 204 209 215 218 220 222 223 221 220 220 221 222 222 222 221 219 217 218 222 223 220 217 213 211 210 210 208 208 208 206 203 203 206 206 206 208 212 213 214 217 221 223 222 223 225 226 226 227 230 232 233 235 238 240 241 242 244 248 252 257 263 266 270 278 286 293 292 282 277 277 278 280
174 176 179 182 184 183 185 190 191 191 195 198 200 203 206 211 218 223 225 226 226 225 225 226 227 228 229 227 225 223 223 226 229 229 224 219 214 213 211 209 208 208 207 206 207 208 209 210 212 214 216 218 220 222 223 223 224 225 224 223 225 228 229 231 233 236 238 238 239 240 243 246 251 257 263 270 277 284 288 283 274 272 274 276 278
179 178 179 182 182 182 185 190 191 193 196 197 198 202 205 205 210 219 224 227 229 230 230 230 231 232 234 234 232 231 230 231 232 233 232 225 219 215 212 209 207 205 205 208 210 211 212 215 218 220 221 223 224 224 224 225 226 225 224 224 225 228 229 230 232 234 235 236 237 239 241 244 248 253 260 267 271 275 278 276 272 271 274 278 281
183 182 183 184 183 184 188 193 195 197 200 201 202 204 206 207 210 214 216 220 225 230 232 232 233 234 236 238 239 238 238 237 235 236 236 231 222 216 211 209 208 209 212 214 216 217 219 220 222 225 226 227 228 228 227 228 227 224 224 225 226 226 228 229 230 232 233 233 235 237 240 242 245 248 254 259 261 263 268 270 271 270 272 278 282
181 181 182 184 184 187 192 196 198 199 202 205 208 209 210 212 213 214 214 215 220 227 232 234 234 235 236 238 240 241 241 241 239 237 237 235 226 214 206 204 206 209 214 218 222 224 225 226 228 230 230 231 233 232 229 228 227 225 225 225 224 224 227 230 231 232 232 232 234 236 238 242 243 244 248 251 254 259 264 265 266 268 272 278 282
177 176 177 178 181 186 193 198 202 205 207 211 214 216 216 216 215 215 219 222 224 226 232 235 236 237 237 238 240 241 241 241 241 239 237 237 228 211 202 205 209 210 212 218 223 227 230 232 234 235 233 232 234 233 229 228 229 228 227 227 226 226 228 230 231 231 231 231 233 235 237 241 243 242 244 247 250 256 261 264 267 269 271 276 280
175 176 179 180 181 183 188 195 200 203 206 210 214 216 217 219 220 218 219 224 226 225 228 232 232 231 234 236 237 238 239 240 242 241 239 236 227 213 208 211 214 215 218 222 225 229 233 234 235 236 236 235 235 234 231 229 229 229 228 228 228 230 231 231 231 231 231 231 233 235 238 242 243 240 240 244 247 248 249 254 261 266 268 271 275
177 180 181 182 184 185 188 195 199 202 203 205 209 210 208 212 217 219 220 225 227 226 227 230 227 225 228 233 235 234 233 231 229 227 226 223 217 213 215 219 221 222 225 228 229 230 233 234 236 237 238 237 236 235 232 230 230 229 228 229 229 230 231 230 229 229 230 231 233 236 239 242 244 241 240 242 245 245 245 248 254 259 264 267 269
184 187 184 182 182 183 186 193 198 200 200 201 204 207 207 206 210 216 221 225 227 227 227 228 228 228 229 231 231 225 217 211 207 207 210 212 212 214 218 222 225 226 229 232 232 232 234 236 238 239 240 239 238 236 234 232 232 231 230 229 229 227 227 227 228 229 231 232 234 237 238 241 243 242 240 241 243 243 243 246 250 254 258 260 262
183 186 185 184 183 182 185 189 194 197 200 201 204 207 208 209 211 214 220 226 229 229 228 228 231 233 233 231 228 220 211 207 207 208 210 212 214 216 219 223 227 229 231 233 235 235 236 239 240 241 241 241 240 238 236 234 233 232 230 228 227 226 227 228 229 231 233 235 236 237 238 240 241 239 238 241 244 243 241 244 248 251 254 258 261
181 184 186 188 190 191 192 193 195 197 200 202 204 209 214 219 221 222 225 229 232 235 237 238 239 241 240 238 235 229 222 218 217 218 219 219 219 221 223 227 230 233 234 236 238 238 240 241 242 243 243 243 242 241 239 236 233 231 229 228 228 228 229 229 230 232 234 235 236 237 238 238 238 239 240 241 241 239 239 242 246 249 252 256 260
178 182 185 192 199 200 200 203 206 209 212 212 212 216 220 224 229 231 233 235 239 242 246 248 249 251 250 247 243 238 233 230 229 229 230 230 230 230 231 233 236 238 240 240 241 242 243 245 245 246 247 247 246 244 241 237 235 233 231 229 229 228 228 229 231 232 233 235 237 238 238 237 237 239 241 240 238 238 240 242 243 244 247 251 255
171 173 178 188 197 197 201 211 217 220 223 222 221 223 224 226 231 236 239 243 247 250 252 255 256 256 256 255 250 242 238 237 237 238 239 239 239 239 240 241 242 244 245 245 245 246 247 248 249 251 252 253 251 249 247 244 240 235 232 231 230 229 228 229 231 232 233 234 236 238 237 236 236 237 238 240 240 241 241 242 242 242 245 248 250
162 165 170 178 187 195 205 216 221 225 228 227 228 232 235 236 238 242 245 249 253 254 255 256 256 256 257 256 252 245 241 241 241 242 244 245 246 246 247 247 248 248 249 250 250 250 250 251 252 254 256 257 256 255 254 251 245 239 236 233 231 229 229 230 231 234 234 234 235 236 236 235 234 235 236 239 239 238 237 239 241 241 242 246 250
150 153 158 165 176 192 206 219 226 231 235 239 241 247 251 251 250 249 249 250 254 256 257 259 258 257 256 255 252 249 247 247 247 248 249 250 252 252 252 253 253 252 253 253 254 254 254 254 254 255 257 258 258 258 257 252 244 239 238 236 233 233 233 233 235 237 237 236 235 235 235 234 234 234 234 235 235 236 238 239 239 239 243 248 251
134 138 144 150 158 168 187 216 238 248 253 254 256 260 262 260 260 259 256 254 255 257 260 261 262 260 258 256 255 255 255 254 254 254 255 256 257 258 259 259 258 257 257 257 258 258 258 258 258 258 259 259 260 260 259 252 243 237 235 235 235 236 237 236 236 236 236 236 234 233 233 233 233 233 232 231 231 234 238 240 240 242 248 254 255
122 128 132 137 139 145 195 272 289 293 291 287 284 279 274 270 269 268 268 267 266 264 263 262 262 261 260 259 258 258 259 260 260 261 262 262 262 263 263 263 262 261 261 261 261 261 261 261 261 260 260 260 259 259 259 253 243 237 234 233 233 233 233 233 234 235 234 234 233 233 233 233 232 230 230 229 230 231 235 239 243 247 252 256 259
94 93 82 69 53 25 353 338 329 320 314 310 303 295 289 285 282 278 276 275 274 271 269 269 267 265 264 264 263 263 263 264 265 266 267 267 266 266 266 266 265 264 264 263 263 263 263 263 262 261 261 260 258 257 257 252 243 236 233 233 232 231 231 233 234 234 233 232 232 232 232 232 231 231 229 229 231 232 233 237 241 245 249 255 260
44 35 22 15 8 357 346 338 329 322 316 311 305 302 300 298 292 286 283 281 279 277 275 273 272 271 270 269 269 268 268 268 269 270 271 271 271 270 270 269 268 267 267 267 267 266 265 264 263 262 261 260 258 257 254 250 242 236 233 233 232 231 231 233 234 234 233 232 231 230 231 231 232 232 230 229 231 233 234 237 241 243 247 255 260
12 2 354 348 341 333 325 319 314 311 307 303 301 299 299 297 293 290 289 286 283 282 279 276 275 275 274 273 274 274 273 274 274 275 276 278 277 276 274 271 270 270 272 273 272 270 268 266 265 263 262 260 259 256 253 248 242 237 236 236 234 232 230 231 232 231 231 231 230 229 230 231 233 233 232 231 233 234 236 238 241 244 249 255 259
345 337 329 324 319 314 310 308 307 306 304 302 299 295 292 290 288 286 286 285 282 281 280 280 278 277 276 276 277 278 277 278 278 278 279 280 280 280 278 276 273 274 277 280 278 274 270 268 265 263 262 260 258 255 252 247 242 239 238 237 235 231 229 229 229 228 229 229 229 229 229 231 232 234 234 232 233 235 237 240 242 245 249 252 254